Location: Bonferraro
(45.1833°N, 11.0000°E)
Time: 21:53:15
(UTC+00:00)

Daily predictions for brighter satellites

Satellite Brightness Start Highest point End
(mag) Time Altitude Azimuth Time Altitude Azimuth Time Altitude Azimuth
Feng Yun 1-1 Rocket 4.3 16:13:28 10° SSE 16:19:01 62° ENE 16:24:28 10° N
CZ-4B R/B 4.0 16:14:03 10° S 16:19:16 56° W 16:24:29 10° NNW
YAOGAN 1 4.3 16:17:57 10° E 16:20:00 13° ENE 16:22:02 10° NNE
Meteor 2-3 Rocket 3.9 16:14:54 10° N 16:20:38 58° ENE 16:26:18 10° SSE
Okean-O 3.2 16:18:57 10° SE 16:22:58 35° ENE 16:27:01 10° N
Cosmos 2221 2.8 16:21:00 10° SSE 16:25:07 48° E 16:29:18 10° NNE
TSX-5 3.9 16:21:40 10° SSW 16:25:26 75° ESE 16:30:17 10° NNE
Cosmos 1697 Rocket 4.4 16:25:39 10° ESE 16:27:43 12° E 16:29:48 10° ENE
SeaSat 1 2.7 16:23:00 10° SE 16:27:44 48° NE 16:32:28 10° NNW
CZ-3B R/B 3.6 16:26:09 10° W 16:27:54 25° NNW 16:30:24 10° NE
Cosmos 1842 Rocket 3.6 16:24:45 10° S 16:29:14 76° E 16:33:43 10° NNE
PSLV R/B 4.5 16:29:24 10° SW 16:31:27 21° SSE 16:33:30 10° ESE
ATLAS 5 CENTAUR R/B 2.8 16:29:16 10° NNW 16:34:36 41° NE 16:40:40 10° ESE
Geosat 4.2 16:30:10 10° NE 16:35:08 55° ESE 16:40:03 10° SSW
Cosmos 2233 Rocket 4.0 16:31:11 10° N 16:37:31 71° E 16:43:47 10° SSE
Lacrosse 4 Rocket 3.4 16:37:52 10° ESE 16:38:37 10° ESE 16:39:13 10° E
Cosmos 1408 4.2 16:38:09 10° NNW 16:41:31 37° W 16:44:51 10° SSW
AQUARIUS 4.1 16:38:29 10° SSE 16:42:59 83° ENE 16:47:31 10° NNW
Cosmos 1867 3.6 16:40:27 10° SSW 16:45:55 89° SE 16:51:26 10° NE
ASTEX 1 4.2 16:42:42 10° N 16:47:36 56° W 16:52:28 10° SSW
Cosmos 1743 Rocket 3.8 16:45:27 10° NNW 16:49:48 74° W 16:54:08 10° S
Cosmos 1805 Rocket 3.8 16:46:09 10° N 16:50:20 44° ENE 16:54:30 10° SSE
Okean O Rocket 4.4 16:51:28 10° SW 16:54:56 22° W 16:58:25 10° NW
Cosmos 1464 Rocket 4.3 16:51:48 10° N 16:57:36 40° ENE 17:03:20 10° SE
NOAA 12 4.1 16:52:25 10° SSE 16:57:44 76° ENE 17:03:05 10° N
ERBS 4.1 16:56:09 10° SSE 16:58:14 16° SE 16:58:41 15° ESE
GEOS 3 Rocket 3.9 16:53:54 10° NE 16:59:06 70° NW 17:04:20 10° SW
CZ-4 R/B 2.0 16:55:20 10° SE 16:59:11 36° ENE 17:02:58 10° N
NOSS 8 (A) 4.1 16:56:32 10° SSW 16:59:47 72° SE 17:01:44 20° NE
Cosmos 1825 4.1 16:56:30 10° NNW 16:59:56 33° W 17:03:20 10° SSW
Cosmos 773 Rocket 3.9 16:55:24 10° SSW 17:00:32 73° ESE 17:05:44 10° NNE
Cosmos 1869 3.3 16:59:35 10° S 17:03:29 58° E 17:07:22 10° NNE
SMAP 3.9 17:00:55 10° S 17:05:28 54° W 17:10:03 10° NNW
Cosmos 1656 4.0 17:01:16 10° S 17:06:30 44° ESE 17:11:00 14° NE
Cosmos 2219 3.2 17:04:24 10° NNW 17:10:03 86° WSW 17:15:40 10° SSE
Cosmos 1238 Rocket 3.8 17:09:03 10° NNW 17:13:36 54° W 17:17:19 10° S
Cosmos 1538 Rocket 3.9 17:08:59 10° SSW 17:14:12 73° ESE 17:19:32 10° NNE
Meteor 2-20 4.4 17:09:55 10° S 17:16:01 85° E 17:22:13 10° N
Cosmos 1939 Rocket 4.1 17:17:44 24° NE 17:17:44 24° NE 17:20:22 10° NNE
Cosmos 1633 Rocket 3.4 17:17:07 10° N 17:21:18 41° ENE 17:25:28 10° SSE
Cosmos 1633 2.6 17:19:46 10° N 17:23:22 52° E 17:26:54 10° SSE
CSL-04 Rocket 3.6 17:21:05 10° SSE 17:26:22 60° ENE 17:31:37 10° N
COSMO-SKYMED 1 2.4 17:22:11 10° NNE 17:26:33 76° ESE 17:30:54 10° S
FengYun 1-2 T 4.1 17:21:23 10° SSE 17:26:55 84° ENE 17:32:27 10° NNW
TELKOM 3 3.9 17:24:51 10° WNW 17:26:20 39° NW 17:26:20 39° NW
COBE Rocket 4.4 17:24:16 10° N 17:29:02 58° WNW 17:33:39 10° SSW
Cosmos 2344 4.4 17:22:11 10° WSW 17:29:23 47° NW 17:37:35 10° NE
Cosmos 1980 Rocket 3.5 17:26:10 10° SSE 17:28:59 20° ESE 17:28:59 20° ESE
Cosmos 1666 Rocket 3.4 17:26:37 10° N 17:30:59 63° E 17:35:17 10° SSE
Cosmos 1607 3.9 17:25:41 10° NW 17:31:54 86° WSW 17:38:12 10° SSE
Cosmos 2227 Rocket 2.1 17:26:50 10° NNW 17:32:33 88° ENE 17:38:13 10° SSE
Cosmos 2297 Rocket 2.2 17:27:20 10° NNW 17:33:02 85° WSW 17:38:41 10° SSE
Sich 1 3.0 17:33:00 10° N 17:37:20 82° W 17:41:42 10° S
Cosmos 1328 Rocket 3.9 17:33:27 10° SSE 17:37:15 41° ESE 17:37:15 41° ESE
YAOGAN 6 2.7 17:35:08 10° S 17:38:38 71° W 17:42:08 10° NNW
USA 215 3.5 17:37:22 30° E 17:40:24 53° NNE 17:46:43 10° NW
Cosmos 2084 4.4 17:36:53 10° NW 17:41:00 46° WSW 17:45:00 10° SSE
Envisat 3.9 17:40:03 10° S 17:44:59 51° W 17:49:57 10° NNW
Cosmos 2369 3.7 17:40:48 10° S 17:46:19 58° ESE 17:48:30 36° NE
Cosmos 1151 Rocket 3.8 17:42:33 10° SSE 17:45:18 34° SE 17:45:18 34° SE
NOSS 2-3 (E) 4.2 17:43:40 10° S 17:47:10 38° SE 17:47:10 38° SE
USA 229 DEB 3.7 17:43:09 10° SW 17:49:43 78° NW 17:54:26 22° NE
USA 229 3.7 17:43:16 10° SW 17:49:49 79° NW 17:54:29 22° NE
Cosmos 1862 3.2 17:48:30 10° N 17:52:29 85° W 17:56:28 10° S
Cosmos 2034 Rocket 3.9 17:46:47 10° N 17:53:10 77° E 17:59:32 10° SSE
NOSS 3-1 (A) 3.2 17:49:24 10° SSW 17:54:53 73° ESE 17:57:09 40° NE
YAOGAN 1 2.7 17:51:12 10° S 17:55:30 73° WSW 17:59:52 10° NNW
IRS-1A Rocket 4.4 17:55:13 47° E 17:55:47 49° ENE 18:01:16 10° N
NOSS 3-1 (C) 3.4 17:50:53 10° SW 17:56:24 75° NW 17:59:55 28° NNE
NOSS 2-3 (D) 4.3 17:52:55 10° SSW 17:56:02 38° SSE 17:56:02 38° SSE
Cosmos 2346 Rocket 4.4 17:52:12 10° S 17:58:22 65° E 18:04:31 10° NNE
Cosmos 2082 3.6 17:53:13 10° NNW 17:58:52 89° ENE 18:02:34 22° SSE
Cosmos 2263 Rocket 3.8 17:54:53 10° N 17:57:19 19° NNE 17:57:19 19° NNE
Cosmos 2278 3.6 18:01:18 10° S 18:06:52 63° ESE 18:07:12 61° E
Meteor 2-11 Rocket 4.4 18:04:11 10° N 18:10:19 84° W 18:16:27 10° S
Cosmos 1697 Rocket 2.5 18:05:05 10° SSW 18:10:45 83° ESE 18:12:06 54° NE
Cosmos 2112 Rocket 4.0 18:07:05 10° S 18:11:31 60° SSE 18:11:31 60° SSE
Tsikada Rocket 3.9 18:06:30 10° S 18:12:48 73° E 18:19:12 10° NNE
Lacrosse 4 Rocket 2.1 18:12:35 10° SW 18:15:36 47° SW 18:15:36 47° SW
ATLAS 5 CENTAUR R/B 3.3 18:13:48 10° NW 18:19:28 48° WSW 18:25:50 10° SSE
Cosmos 1680 Rocket 3.4 18:14:57 10° SSW 18:20:10 88° WNW 18:20:18 86° N
Cosmos 1816 Rocket 4.4 18:16:18 10° S 18:22:38 89° E 18:29:03 10° N
H-2A R/B 4.3 18:31:12 14° N 18:31:12 14° N 18:32:01 10° N
Ariane Rocket 3.1 18:28:23 69° NNW 18:28:23 69° NNW 18:32:54 10° NNW
CZ-4 R/B 4.0 18:31:05 10° SW 18:34:17 21° W 18:37:28 10° NW
Cosmos 724 4.3 18:33:04 10° NW 18:38:19 72° NW 18:38:19 72° NW
CENTAUR R/B 4.3 18:37:08 10° NNW 18:42:52 23° NNE 18:42:52 23° NNE
ATLAS 3B R/B 4.4 18:54:01 10° NNW 18:57:17 18° N 18:57:17 18° N
Cosmos 1980 Rocket 3.9 19:08:22 10° SW 19:10:50 26° SW 19:10:50 26° SW
USA 215 3.9 19:24:44 50° W 19:24:44 50° W 19:29:50 10° NW
